Location: Mohawk View
(42.7837°N, 73.7885°W)
Time: 16:58:29
(UTC+00:00)

SJ 16-02 - Pass Details

Date: 17 June 2021
Orbit: 606 x 616 km, 75.0° (Epoch: 02 August)

Event Time Altitude Azimuth Distance (km) Brightness Sun altitude
Rises 06:19:07 0° 330° (NNW) 2,872 5.3 -21.1°
Reaches altitude 10° 06:21:36 10° 318° (NW) 1,962 4.3 -21.0°
Enters shadow 06:24:56 27° 269° (W) 1,173 2.5 -20.7°
